Home   Weather   Bourges   Past weeks

Flag for France Past Weather in Bourges, Centre-Val de Loire, France — Yesterday and Last 2 Weeks

Now
40 °F

Fog.


Feels Like: 38 °F
Forecast: 36 / 56 °F
Wind: 3 mph from Southwest

Location: Bourges

Current Time: Nov 20, 2017 at 10:49:17 am

Latest Report: Nov 20, 2017 at 10:00 am


Visibility: 2 mi

Pressure: 30.31 "Hg

Humidity: 94%

Dew Point: 39 °F

Location of BourgesLocation

Past Weather in Bourges — Graph

°F

Bourges Temperature Yesterday

Maximum temperature yesterday: 44 °F (at 7:00 pm)
Minimum temperature yesterday: 37 °F (at 3:00 am)
Average temperature yesterday: 40 °F

High & Low Weather Summary for the Past Weeks

 TemperatureHumidityPressure
High55 °F (Nov 12, 1:00 pm)97% (Nov 6, 7:00 am)30.39 "Hg (Nov 6, 7:00 am)
Low28 °F (Nov 15, 6:00 am)52% (Nov 6, 3:00 pm)29.75 "Hg (Nov 12, 1:00 pm)
Average42 °F87%30.23 "Hg
* Reported Nov 5 9:00 am — Nov 20 9:00 am, Bourges. Weather by CustomWeather, © 2017

Note: Actual official high and low records may vary slightly from our data, if they occured in-between our weather recording intervals... More about our weather records

Advertising

Bourges Weather History for the Previous 24 Hours

Scroll right to see more
 ConditionsComfort  
Time TempWeatherWind HumidityBarometerVisibility
9:00 am
Mon, Nov 20
40 °FLow clouds.5 mph93%30.31 "Hg3 mi
8:00 am40 °FLow clouds.3 mph92%30.30 "Hg3 mi
7:00 am40 °FLow clouds.2 mph92%30.31 "Hg3 mi
6:00 am40 °FLow clouds.5 mph93%30.30 "Hg4 mi
5:00 am40 °FLow clouds.5 mph91%30.29 "Hg6 mi
4:00 am41 °FLow clouds.3 mph90%30.30 "Hg8 mi
3:00 am41 °FLow clouds.3 mph88%30.31 "Hg8 mi
2:00 am42 °FLow clouds.2 mph88%30.32 "Hg9 mi
1:00 am42 °FLow clouds.1 mph90%30.32 "Hg9 mi
12:00 am41 °FLow clouds.2 mph92%30.33 "Hg3 mi
11:00 pm
Sun, Nov 19
41 °FQuite cool.2 mph92%30.33 "Hg4 mi
10:00 pm43 °FLow clouds.No wind87%30.33 "Hg6 mi
9:00 pm43 °FLow clouds.2 mph91%30.32 "Hg4 mi
8:00 pm43 °FLow clouds.1 mph90%30.31 "Hg4 mi
7:00 pm44 °FLow clouds.1 mph92%30.30 "Hg2 mi
6:00 pm43 °FLow clouds.2 mph93%30.29 "Hg2 mi
5:00 pm43 °FLow clouds.2 mph93%30.28 "Hg2 mi
4:00 pm43 °FLow clouds.2 mph93%30.27 "Hg2 mi
3:00 pm43 °FDrizzle. Low clouds.3 mph94%30.27 "Hg1 mi
2:00 pm42 °FLow clouds.5 mph93%30.27 "Hg3 mi
1:00 pm42 °FLow clouds.6 mph94%30.27 "Hg2 mi
12:00 pm40 °FDrizzle. Low clouds.5 mph94%30.27 "Hg2 mi
11:00 am39 °FDrizzle. Low clouds.6 mph95%30.27 "Hg1 mi
10:00 am39 °FDrizzle. Low clouds.5 mph94%30.27 "Hg1 mi
Weather by CustomWeather, © 2017

See weather overview